[[{"header":{"parameterUnit":"m.s-1","parameterCategory":1,"la1":30.2991,"la2":30.254,"lo1":-89.0895,"lo2":-89.0444,"dy":0.0017,"dx":0.0017,"nx":28,"ny":28,"refTime":"2025-05-29T03:00:00:Z","depth":0,"parameterNumber":2,"parameterNumberName":"U-component_of_WINDS"},"data":[0,0,0,0,0,0,0,0,0,0,0,0,0,0,0,0,0,0,0,0,0,0,0,0,0,0,0,0,0,0,0,0,0,0,0,0,0,0,0,0,0,0,0,0,0,0,0,0,0,0,0,0,0,0,0,0,0,0,-1.7178,-1.7178,0,-1.7086,-1.7085,-1.7084,-1.7021,-1.702,-1.702,-1.7019,-1.6924,-1.6922,-1.692,0,0,0,0,0,0,0,0,0,0,0,0,0,-1.73,-1.7298,-1.7179,-1.7177,-1.7176,-1.7086,-1.7085,-1.7084,-1.7021,-1.702,-1.702,-1.7019,-1.6925,-1.6922,-1.692,0,0,0,0,0,0,0,0,0,0,0,0,0,-1.7232,-1.7298,-1.7179,-1.7134,-1.7129,-1.7087,-1.7085,-1.7084,-1.7021,-1.702,-1.7019,-1.7019,-1.6926,-1.6923,-1.6919,-1.6914,0,0,-1.691,-1.6909,0,0,0,0,0,0,0,0,-1.7236,-1.7227,-1.7142,-1.7137,-1.7131,-1.7064,-1.7093,-1.7027,-1.7021,-1.7062,-1.7019,-1.7018,-1.6971,-1.6964,-1.6949,-1.691,-1.6906,-1.691,-1.6908,-1.6906,-1.6905,0,0,0,0,0,0,0,-1.7241,-1.7231,-1.7142,-1.714,-1.7134,-1.7119,-1.7108,-1.708,-1.7022,-1.7058,-1.7053,-1.7043,-1.6968,-1.6952,-1.6946,-1.6904,-1.691,-1.6907,-1.6905,-1.6904,-1.6858,-1.6858,0,0,0,0,0,0,-1.7252,-1.7235,-1.7145,-1.7139,-1.7183,-1.7117,-1.7105,-1.7086,-1.7022,-1.7011,-1.7044,-1.7041,-1.6957,-1.695,-1.6942,-1.6932,-1.6906,-1.6903,-1.6902,-1.6857,-1.6858,-1.6858,0,0,0,0,0,0,-1.7255,-1.7245,-1.7149,-1.7186,-1.7173,-1.7116,-1.7095,-1.7085,-1.7068,-1.7011,-1.7,-1.7038,-1.6957,-1.6947,-1.6922,-1.6928,-1.6902,-1.6899,-1.6856,-1.6857,-1.6858,-1.6912,0,0,0,0,0,0,-1.7259,-1.7246,-1.7244,-1.7186,-1.7171,-1.713,-1.7095,-1.7084,-1.7063,-1.7058,-1.7002,-1.6993,-1.6955,-1.6927,-1.6919,-1.6923,-1.6897,-1.6855,-1.6857,-1.6858,-1.6909,-1.6915,-1.6919,0,0,0,0,0,-1.7264,-1.7262,-1.7244,-1.7233,-1.7166,-1.713,-1.7121,-1.7079,-1.7064,-1.7061,-1.7024,-1.6994,-1.6929,-1.6925,-1.6915,-1.6919,-1.6855,-1.6856,-1.6858,-1.6907,-1.6913,-1.6919,0,0,0,0,0,0,-1.7321,-1.7254,-1.7233,-1.7213,-1.7178,-1.712,-1.7114,-1.7087,-1.7055,-1.7052,-1.7,-1.6988,-1.6969,-1.6941,-1.6938,-1.6911,-1.6888,-1.6888,-1.6929,-1.6935,-1.694,-1.6946,-1.6894,0,0,0,0,0,-1.7332,-1.7308,-1.7251,-1.7239,-1.7222,-1.7172,-1.7154,-1.7125,-1.7086,-1.7071,-1.7033,-1.6997,-1.6968,-1.695,-1.692,-1.6906,-1.6892,-1.6903,-1.6908,-1.6912,-1.6912,-1.6903,-1.6907,-1.6863,-1.6863,-1.6863,0,0,-1.7353,-1.7313,-1.7301,-1.7249,-1.7219,-1.7196,-1.7159,-1.7136,-1.7119,-1.7067,-1.7042,-1.7013,-1.6969,-1.6949,-1.6939,-1.6926,-1.6922,-1.6914,-1.6918,-1.6916,-1.6905,-1.6909,-1.6913,-1.6864,-1.6864,-1.6864,0,0,-1.7379,-1.7347,-1.7333,-1.7304,-1.7258,-1.7225,-1.7222,-1.7168,-1.7147,-1.7121,-1.7082,-1.706,-1.7012,-1.6983,-1.6961,-1.6979,-1.695,-1.6971,-1.6996,-1.6987,-1.6991,-1.6993,-1.6999,-1.7002,-1.6971,-1.6971,-1.6971,0,-1.7411,-1.7375,-1.733,-1.7309,-1.7288,-1.7241,-1.7227,-1.7201,-1.7148,-1.7134,-1.7121,-1.706,-1.7027,-1.7,-1.7005,-1.6989,-1.6984,-1.6976,-1.6994,-1.6996,-1.6998,-1.7003,-1.7006,-1.6974,-1.6974,-1.6973,-1.6973,0,-1.7416,-1.7392,-1.7386,-1.7337,-1.7315,-1.7298,-1.7251,-1.7234,-1.7207,-1.7175,-1.7149,-1.7109,-1.707,-1.7062,-1.7035,-1.7031,-1.7025,-1.7004,-1.698,-1.7006,-1.701,-1.7011,-1.6978,-1.6977,-1.6976,-1.6975,0,0,-1.7475,-1.7402,-1.7401,-1.7378,-1.7325,-1.7305,-1.7287,-1.725,-1.7236,-1.7202,-1.7185,-1.7146,-1.7126,-1.7102,-1.7071,-1.7064,-1.708,-1.7043,-1.7041,-1.7051,-1.7074,-1.709,-1.7093,-1.7062,-1.7062,-1.7062,-1.7078,0,-1.7493,-1.7457,-1.7417,-1.7394,-1.7371,-1.7327,-1.7311,-1.7277,-1.7247,-1.7224,-1.7191,-1.7164,-1.714,-1.7125,-1.7116,-1.708,-1.7084,-1.7079,-1.7045,-1.7044,-1.7056,-1.7095,-1.7112,-1.7128,-1.7079,-1.7079,-1.7079,0,-1.7509,-1.7477,-1.7453,-1.7403,-1.7391,-1.7377,-1.7341,-1.7319,-1.7279,-1.7258,-1.7233,-1.72,-1.7179,-1.7159,-1.7128,-1.7126,-1.711,-1.709,-1.709,-1.7084,-1.7063,-1.709,-1.7133,-1.7135,-1.7081,-1.7081,-1.7081,0,-1.7554,-1.7505,-1.7484,-1.7466,-1.7407,-1.7399,-1.7374,-1.7334,-1.7314,-1.7282,-1.7269,-1.7235,-1.7217,-1.7191,-1.7151,-1.714,-1.7125,-1.7101,-1.7106,-1.7108,-1.7104,-1.7105,-1.7144,-1.7096,-1.7095,-1.7095,-1.7095,0,-1.7578,-1.7565,-1.7504,-1.7491,-1.7475,-1.743,-1.7415,-1.7386,-1.7351,-1.7332,-1.7293,-1.7276,-1.7224,-1.7201,-1.7169,-1.7149,-1.7141,-1.7123,-1.7114,-1.7126,-1.7128,-1.7114,-1.7112,-1.7096,-1.7096,-1.7096,-1.7096,0,-1.7626,-1.7584,-1.7558,-1.7505,-1.7491,-1.7482,-1.7436,-1.7422,-1.7391,-1.7367,-1.7359,-1.731,-1.7281,-1.7238,-1.7196,-1.7175,-1.7159,-1.7146,-1.7173,-1.7167,-1.7175,-1.7175,-1.7206,-1.7208,-1.7159,-1.7159,-1.716,0,-1.7643,-1.7632,-1.7578,-1.7562,-1.7539,-1.7514,-1.7494,-1.7449,-1.743,-1.7386,-1.7377,-1.7345,-1.7317,-1.7273,-1.7233,-1.7201,-1.7186,-1.7199,-1.7181,-1.7193,-1.7186,-1.7187,-1.7185,-1.7204,-1.7204,-1.7205,-1.7205,0,-1.7679,-1.766,-1.7632,-1.7598,-1.7576,-1.7547,-1.7516,-1.7506,-1.7454,-1.7435,-1.7405,-1.7383,-1.7341,-1.731,-1.7272,-1.7246,-1.7218,-1.7212,-1.7211,-1.7222,-1.7238,-1.723,-1.7184,-1.7211,-1.721,-1.721,-1.721,-1.7209,-1.7712,-1.77,-1.766,-1.7631,-1.7604,-1.7576,-1.756,-1.7527,-1.7501,-1.7463,-1.7439,-1.741,-1.7372,-1.7319,-1.7295,-1.7272,-1.726,-1.7259,-1.7258,-1.7259,-1.7263,-1.7243,-1.7265,-1.7265,-1.7264,-1.7264,-1.7264,0,-1.7746,-1.7718,-1.7692,-1.765,-1.7628,-1.7603,-1.7568,-1.7551,-1.7526,-1.7493,-1.7467,-1.7432,-1.7402,-1.7361,-1.7328,-1.7317,-1.7303,-1.731,-1.731,-1.7304,-1.7276,-1.7279,-1.7322,-1.7322,-1.7322,-1.7322,-1.7322,-1.7322,-1.7761,-1.7739,-1.7715,-1.768,-1.7652,-1.7624,-1.7606,-1.758,-1.7554,-1.7517,-1.7492,-1.7465,-1.7429,-1.7393,-1.7364,-1.7353,-1.7342,-1.7353,-1.7338,-1.7312,-1.7306,-1.7301,-1.7305,-1.7352,-1.7352,-1.7368,-1.7368,-1.7369]},{"header":{"parameterUnit":"m.s-1","parameterCategory":1,"la1":30.2991,"la2":30.254,"lo1":-89.0895,"lo2":-89.0444,"dy":0.0017,"dx":0.0017,"nx":28,"ny":28,"refTime":"2025-05-29T03:00:00:Z","depth":0,"parameterNumber":3,"parameterNumberName":"V-component_of_WINDS"},"data":[0,0,0,0,0,0,0,0,0,0,0,0,0,0,0,0,0,0,0,0,0,0,0,0,0,0,0,0,0,0,0,0,0,0,0,0,0,0,0,0,0,0,0,0,0,0,0,0,0,0,0,0,0,0,0,0,0,0,5.5435,5.5435,0,5.5435,5.5435,5.5435,5.5395,5.5394,5.5393,5.5392,5.539,5.5391,5.5392,0,0,0,0,0,0,0,0,0,0,0,0,0,5.5402,5.5403,5.5435,5.5435,5.5435,5.5435,5.5435,5.5435,5.5395,5.5394,5.5393,5.5392,5.539,5.5391,5.5392,0,0,0,0,0,0,0,0,0,0,0,0,0,5.541,5.5403,5.5435,5.5416,5.5414,5.5435,5.5435,5.5435,5.5396,5.5394,5.5393,5.5391,5.539,5.5391,5.5392,5.5431,0,0,5.5396,5.5397,0,0,0,0,0,0,0,0,5.541,5.5412,5.5419,5.5417,5.5415,5.5414,5.5422,5.5434,5.5396,5.5403,5.5392,5.539,5.5399,5.54,5.5403,5.5431,5.5431,5.5396,5.5397,5.5398,5.5398,0,0,0,0,0,0,0,5.5409,5.5411,5.5435,5.5419,5.5417,5.5407,5.5406,5.5424,5.5409,5.5402,5.5399,5.54,5.5398,5.5402,5.5402,5.5431,5.5396,5.5398,5.5398,5.5399,5.5494,5.5495,0,0,0,0,0,0,5.5412,5.5411,5.5435,5.5435,5.5409,5.5409,5.5408,5.5416,5.5409,5.5407,5.5401,5.5398,5.54,5.5401,5.5402,5.5449,5.5398,5.5399,5.54,5.5492,5.5494,5.5496,0,0,0,0,0,0,5.5411,5.5414,5.5435,5.5422,5.5424,5.5411,5.542,5.5416,5.542,5.5408,5.5405,5.5407,5.5399,5.54,5.5425,5.5448,5.54,5.5401,5.549,5.5492,5.5495,5.5542,0,0,0,0,0,0,5.541,5.5414,5.5429,5.5423,5.5425,5.5458,5.5421,5.5417,5.5423,5.5419,5.5414,5.5411,5.5398,5.5423,5.5426,5.5449,5.5402,5.5488,5.5491,5.5494,5.5538,5.5546,5.5552,0,0,0,0,0,5.5409,5.5441,5.543,5.5433,5.5443,5.5459,5.546,5.5444,5.5425,5.5439,5.5432,5.5412,5.5445,5.5426,5.5429,5.5453,5.5486,5.549,5.5494,5.5535,5.5544,5.5552,0,0,0,0,0,0,5.5449,5.544,5.5427,5.5458,5.546,5.5453,5.547,5.5454,5.5461,5.5457,5.5436,5.5436,5.5464,5.5461,5.5439,5.5491,5.5462,5.5467,5.5492,5.5501,5.5508,5.5508,5.5403,0,0,0,0,0,5.5461,5.5475,5.5467,5.5495,5.5497,5.5484,5.549,5.5478,5.5479,5.5479,5.5473,5.5475,5.5485,5.5493,5.5502,5.5538,5.5537,5.5556,5.5563,5.5568,5.5573,5.5593,5.5601,5.5508,5.5508,5.5508,0,0,5.5487,5.5484,5.5494,5.5503,5.5503,5.5518,5.5484,5.5501,5.5513,5.5481,5.5505,5.5501,5.5501,5.5532,5.5545,5.553,5.5598,5.5573,5.5578,5.5579,5.5598,5.5606,5.5614,5.5511,5.551,5.551,0,0,5.5541,5.554,5.5565,5.5566,5.5567,5.5558,5.5564,5.556,5.5557,5.558,5.5557,5.557,5.5589,5.5591,5.5594,5.5652,5.5634,5.5655,5.5692,5.5712,5.5719,5.5725,5.5747,5.5755,5.566,5.566,5.566,0,5.5573,5.5595,5.5579,5.5598,5.5604,5.5577,5.5602,5.5604,5.5607,5.5612,5.5595,5.562,5.5618,5.5649,5.5664,5.5667,5.5673,5.5656,5.5719,5.5726,5.5731,5.5752,5.576,5.5662,5.5662,5.5662,5.5662,0,5.5635,5.5651,5.567,5.5676,5.5684,5.5706,5.5693,5.5702,5.569,5.5684,5.5709,5.5706,5.5715,5.5721,5.5709,5.5752,5.5742,5.5723,5.5693,5.5743,5.5762,5.577,5.5666,5.5665,5.5665,5.5664,0,0,5.5713,5.5711,5.5718,5.5722,5.5722,5.5734,5.5755,5.5765,5.5775,5.5778,5.5796,5.5814,5.5797,5.58,5.5788,5.5805,5.5853,5.5784,5.5784,5.5798,5.5902,5.5917,5.5926,5.5841,5.5843,5.5844,5.5902,0,5.5766,5.5804,5.579,5.5828,5.5844,5.582,5.5839,5.5841,5.5836,5.5848,5.5842,5.5856,5.5831,5.5834,5.585,5.5844,5.5874,5.584,5.5858,5.5859,5.5859,5.5936,5.5952,5.6007,5.5909,5.5911,5.5912,0,5.5834,5.5842,5.5882,5.5882,5.5888,5.5905,5.5914,5.5926,5.5929,5.5924,5.593,5.5914,5.5935,5.5906,5.5936,5.5913,5.5919,5.5918,5.592,5.5921,5.5889,5.594,5.6024,5.6033,5.5923,5.5922,5.5921,0,5.5888,5.591,5.5937,5.594,5.594,5.5953,5.5953,5.5954,5.5962,5.597,5.5975,5.5985,5.599,5.5998,5.5986,5.5966,5.6018,5.5987,5.6015,5.6016,5.6027,5.6027,5.6114,5.6031,5.6031,5.603,5.603,0,5.595,5.5976,5.5962,5.5978,5.6007,5.5992,5.602,5.6018,5.602,5.6036,5.6015,5.6031,5.6013,5.6027,5.6018,5.6045,5.6047,5.6044,5.6041,5.6046,5.6047,5.605,5.6047,5.6033,5.6032,5.6032,5.6031,0,5.6015,5.6007,5.6035,5.6034,5.6034,5.6055,5.6054,5.6069,5.6064,5.6084,5.6088,5.6079,5.6095,5.6084,5.6098,5.6092,5.6128,5.6119,5.6127,5.6125,5.6154,5.6152,5.6247,5.626,5.6168,5.6169,5.6169,0,5.6056,5.6075,5.6077,5.6087,5.6089,5.6105,5.6113,5.6099,5.6109,5.6115,5.613,5.6144,5.6154,5.6181,5.6175,5.6187,5.6179,5.6212,5.618,5.6185,5.6181,5.618,5.6182,5.6218,5.6219,5.622,5.6221,0,5.6128,5.6124,5.6137,5.615,5.6161,5.6169,5.6176,5.6185,5.6172,5.6184,5.62,5.6208,5.6225,5.624,5.625,5.625,5.6233,5.6231,5.6238,5.6243,5.6248,5.6247,5.6145,5.6228,5.6228,5.6227,5.6227,5.6226,5.6183,5.62,5.6205,5.6221,5.6225,5.6233,5.6248,5.6245,5.6259,5.6272,5.6263,5.6283,5.6286,5.6298,5.6301,5.6316,5.6303,5.6313,5.6316,5.6319,5.6324,5.6245,5.6318,5.6318,5.6317,5.6317,5.6317,0,5.6256,5.6258,5.6273,5.6285,5.6298,5.6282,5.629,5.6301,5.632,5.6325,5.6336,5.6356,5.6371,5.6367,5.638,5.6393,5.6386,5.6397,5.6397,5.6397,5.6334,5.6327,5.6403,5.6403,5.6403,5.6403,5.6403,5.6403,5.6295,5.6324,5.6321,5.6352,5.6353,5.6374,5.638,5.6387,5.6391,5.6415,5.6427,5.6425,5.6427,5.6441,5.6454,5.6452,5.6459,5.6473,5.6469,5.641,5.6401,5.6393,5.6387,5.6474,5.6474,5.6531,5.6531,5.6531]}]]